Theta_e
309 309 309 309 309 309 309 308 308 308 307 306 306 306 307 310 311 312 312 314 315 314 314 314 316 316 315 315 314 309 310 312 313 315 316 313 313 312 310 311 310 308 309 308 309
309 309 309 309 309 309 309 309 309 308 308 307 307 306 306 310 311 313 311 314 315 314 316 315 314 314 313 316 315 314 309 310 310 314 315 314 312 312 312 311 309 310 308 307 308
310 310 310 310 310 310 310 309 309 309 309 309 308 307 306 310 313 310 317 313 316 315 315 315 314 313 315 315 316 314 314 312 314 313 314 314 312 310 311 311 308 309 309 304 304
312 311 310 310 310 310 310 310 310 310 310 310 309 308 306 312 309 315 315 317 315 314 315 315 312 314 315 316 314 316 313 312 314 315 315 314 312 311 308 314 310 307 308 303 303
315 314 314 312 311 310 308 308 308 308 309 310 310 309 307 312 310 312 315 316 314 313 314 311 312 313 315 313 315 315 315 314 312 313 312 312 311 312 310 310 306 306 305 304 303
316 315 315 315 314 313 311 310 308 307 306 307 309 308 311 307 311 311 314 314 313 312 312 311 311 311 313 314 314 313 313 313 312 312 312 314 314 312 312 309 309 307 306 303 303
316 316 315 315 314 314 313 311 310 309 307 306 306 307 313 307 312 312 313 313 312 312 310 310 312 313 312 312 312 313 313 310 309 310 312 310 312 310 312 311 308 306 305 305 303
316 316 315 315 314 314 313 311 309 309 309 307 305 311 304 309 311 312 312 311 311 311 311 311 312 311 312 310 309 312 311 311 310 309 311 310 311 312 308 309 309 308 306 305 305
316 316 316 315 315 314 310 308 310 309 308 307 309 311 306 310 311 311 312 311 310 310 310 312 311 310 311 310 309 308 310 309 310 309 311 310 311 310 310 307 308 307 307 307 307
317 316 316 316 316 313 311 310 311 311 312 314 315 309 305 309 312 312 310 310 309 308 309 310 307 309 307 308 311 310 309 308 309 310 310 311 310 310 310 307 307 308 308 309 309
318 317 317 317 317 313 310 312 307 305 312 306 309 305 309 310 313 310 310 310 308 308 309 309 309 310 310 309 310 308 308 308 308 308 311 310 311 311 311 310 311 311 308 310 309
321 319 319 318 317 313 308 309 308 308 307 306 306 307 308 311 312 310 310 310 310 310 307 309 310 310 309 308 309 309 310 311 311 310 308 309 310 309 308 310 310 311 311 310 310
325 321 319 318 316 314 308 307 307 309 307 306 306 305 306 309 309 309 308 308 310 309 308 312 311 309 309 309 310 309 310 311 311 309 307 306 311 309 307 306 308 309 309 309 309
325 324 320 319 315 313 310 309 307 309 307 306 308 307 309 308 308 303 306 308 309 310 308 309 309 310 309 309 309 312 308 310 310 310 312 308 312 310 309 309 308 308 308 307 308
324 324 321 318 317 314 312 306 306 305 323 312 308 308 308 306 305 304 303 307 309 310 309 308 310 309 310 311 308 311 308 308 308 308 309 310 309 311 309 309 307 307 307 307 307
324 323 320 317 316 315 312 308 306 313 322 312 307 308 309 308 307 304 305 303 304 307 306 307 305 307 308 308 307 307 309 307 306 307 312 310 310 313 308 309 309 308 307 306 305
321 321 319 318 316 315 313 312 324 323 316 315 310 309 308 308 309 306 307 308 308 309 307 306 306 306 307 309 307 308 309 310 309 309 313 308 308 313 310 308 307 309 305 305 303
318 319 319 318 317 314 316 319 327 322 317 315 316 311 317 309 313 307 305 307 305 305 305 308 314 306 305 307 308 307 308 311 311 312 314 304 309 313 309 307 306 305 305 303 303
314 318 317 319 317 314 317 324 320 321 319 321 320 322 319 311 312 310 307 307 307 305 310 307 308 306 305 306 307 306 308 308 311 305 311 311 309 309 307 308 308 306 303 304 303
309 317 317 318 317 313 319 322 320 317 318 319 323 321 321 310 317 311 310 307 308 304 305 308 309 307 306 306 306 307 307 310 308 312 313 310 310 312 311 311 308 306 304 305 304
309 314 315 317 312 314 318 320 318 315 316 319 321 322 320 320 319 320 320 313 310 310 305 308 312 314 310 308 313 306 307 307 309 312 314 315 315 313 313 307 306 308 307 306 303
309 312 312 313 315 315 318 317 315 316 314 318 317 319 320 318 319 320 321 317 315 313 316 312 316 320 317 309 307 307 309 309 311 313 311 313 315 312 313 309 310 311 311 308 303
306 308 310 312 317 318 315 316 316 316 315 317 318 317 316 317 318 317 317 315 315 317 318 315 316 320 318 313 311 313 314 312 313 311 312 314 314 311 312 312 311 310 306 305 304
303 306 310 310 312 313 313 314 316 314 315 316 316 314 315 316 315 316 315 312 311 312 313 313 317 319 321 317 314 316 313 312 313 315 314 313 312 311 311 311 311 310 307 304 300
299 302 303 307 309 309 310 310 310 311 313 314 314 315 315 315 314 314 312 310 308 308 308 312 315 314 314 314 315 316 315 316 316 313 314 315 315 314 313 306 300 302 298 297 296
297 298 300 300 302 305 307 307 309 309 309 310 310 310 309 312 313 311 305 306 307 306 305 306 308 309 311 308 309 312 312 311 311 309 310 310 310 295 294 293 294 294 292 292 293
295 296 298 297 298 301 302 304 305 302 305 305 303 304 307 305 299 298 298 300 301 302 301 303 305 306 306 304 304 304 304 304 305 306 306 307 295 293 292 291 291 292 291 292 293
Wind_Speed
9 10 11 12 12 11 11 10 11 11 12 12 11 11 11 9 9 7 7 7 4 10 7 7 5 3 2 1 2 4 3 3 5 5 4 1 3 2 1 2 4 6 4 2 3
10 10 11 12 13 13 14 13 12 12 12 13 13 13 13 11 10 12 13 9 9 13 11 11 4 5 1 1 1 4 3 8 6 4 3 3 5 4 2 5 5 6 5 3 17
11 11 12 13 13 13 14 15 15 14 14 14 14 14 14 10 4 6 2 14 11 13 7 8 6 5 1 2 4 5 6 5 7 7 4 3 3 5 4 8 9 9 10 7 15
11 11 12 13 15 15 14 14 15 15 16 15 15 15 14 4 5 2 3 9 15 15 9 7 4 4 4 5 5 3 9 6 5 4 3 5 3 5 8 20 7 14 6 7 11
13 14 15 15 16 16 16 17 17 16 15 14 14 13 6 2 9 8 6 11 17 17 16 7 6 6 6 5 2 5 5 7 9 6 7 5 11 7 10 21 9 9 8 10 11
13 15 17 17 18 18 18 19 19 17 17 16 13 10 1 4 7 8 9 13 13 19 12 9 7 7 3 5 7 2 5 7 7 7 7 6 19 6 14 7 10 7 13 11 12
12 14 16 18 20 21 21 20 21 19 19 16 14 4 2 14 9 8 12 12 17 12 2 5 2 3 2 4 3 3 8 8 6 5 8 8 12 11 24 3 12 11 11 11 14
12 14 15 17 20 23 24 21 21 20 19 16 10 6 7 9 14 17 17 9 7 10 6 3 4 2 2 4 7 4 1 5 2 6 3 8 11 23 12 7 13 14 11 11 14
12 13 15 17 20 25 22 20 19 15 10 4 6 5 8 6 6 13 16 6 8 6 4 3 4 4 2 2 4 3 6 8 12 11 6 8 10 15 4 8 11 12 12 13 15
12 13 15 18 22 25 24 17 4 2 7 7 3 2 6 6 4 4 10 10 4 6 3 3 4 3 3 4 8 9 5 6 7 8 5 6 15 13 14 7 13 15 15 20 21
12 14 16 18 22 21 22 3 4 1 2 9 7 5 3 2 6 4 7 10 5 4 7 3 4 9 22 16 14 4 7 9 8 10 2 11 16 16 18 15 21 19 18 21 22
12 13 15 16 20 16 11 5 2 2 8 9 8 8 9 2 2 2 10 6 5 7 5 1 11 20 7 4 7 8 13 17 18 17 5 17 24 15 12 19 23 26 22 24 21
13 13 13 13 14 8 7 4 4 2 2 9 5 4 4 7 7 5 10 5 5 7 10 18 10 11 9 8 5 11 11 18 17 6 5 10 21 14 10 9 18 22 19 19 20
14 14 12 11 6 6 2 7 4 1 3 7 3 2 0 2 3 2 3 3 2 10 6 9 7 12 6 7 14 22 12 14 10 2 10 2 19 4 10 18 16 19 17 13 18
15 13 13 7 7 2 2 6 2 0 6 4 2 1 0 4 1 4 1 3 4 4 4 9 2 4 7 16 9 12 6 6 3 4 5 4 4 2 5 9 12 11 11 14 15
15 13 13 8 8 5 2 2 1 3 8 4 1 1 2 2 1 2 3 4 3 2 4 10 3 6 8 4 10 3 3 3 4 3 7 10 7 24 5 7 4 6 10 11 11
8 11 15 8 2 5 2 2 3 6 4 3 1 1 1 2 2 3 4 4 5 2 5 3 5 3 5 5 2 4 4 4 3 2 10 7 6 26 8 8 8 13 10 11 11
9 6 15 18 13 7 1 3 9 4 7 3 2 1 4 6 5 3 4 4 5 1 2 4 16 9 6 9 8 7 9 6 7 8 16 7 9 18 8 9 6 6 8 9 11
10 7 10 20 20 14 2 6 8 7 8 5 3 4 4 3 2 1 5 4 6 13 10 5 10 2 5 4 9 5 6 8 3 0 3 12 17 15 8 6 3 6 7 8 9
6 5 9 14 23 12 5 17 8 7 3 2 7 6 6 6 4 4 4 3 4 10 2 2 8 3 2 1 4 6 2 1 1 4 11 8 16 16 16 17 6 8 9 9 10
2 3 4 22 22 4 10 8 9 8 5 6 5 8 7 6 8 10 5 3 4 2 7 4 3 9 1 6 16 1 4 5 1 5 16 19 13 24 28 7 7 12 13 11 8
3 4 4 27 4 3 14 6 9 16 7 15 9 12 14 13 11 7 10 10 6 5 4 7 5 7 19 6 5 5 8 5 5 10 9 15 16 13 24 10 9 18 21 14 9
2 3 6 9 8 11 8 10 15 19 12 5 10 8 7 12 10 14 18 11 8 4 4 2 3 10 6 8 3 6 11 13 17 15 21 19 19 11 19 20 18 13 9 9 8
2 2 3 5 8 11 15 18 15 7 13 13 15 8 10 12 9 5 12 6 5 4 9 6 8 16 13 11 16 17 19 20 13 12 20 19 22 17 22 24 27 16 17 20 19
1 4 2 3 9 17 17 10 19 19 7 4 4 11 13 9 12 15 15 5 3 6 4 2 14 15 20 16 16 20 24 29 30 26 22 22 24 22 23 14 18 16 19 19 19
2 2 3 4 5 6 10 22 20 24 16 20 20 18 12 7 5 4 4 2 5 1 4 1 8 13 22 22 17 18 13 15 13 15 21 24 29 20 18 20 22 17 18 20 18
2 2 2 4 2 4 8 12 10 8 4 3 2 5 8 3 3 5 6 8 10 9 6 6 6 5 20 17 14 15 18 17 21 13 8 8 7 13 18 19 19 15 19 17 16
Wind_Direction
351 351 349 347 346 345 347 347 346 345 343 341 340 341 340 323 300 260 241 225 206 207 183 168 164 158 136 43 111 122 57 257 252 185 250 235 227 198 166 249 224 212 215 292 171
339 338 338 339 337 335 334 334 334 333 332 332 332 332 336 325 303 251 256 216 201 189 177 167 162 138 40 227 169 119 151 230 218 223 238 268 200 250 274 249 246 283 243 202 168
326 326 328 328 326 324 323 324 324 324 323 325 326 329 333 328 324 247 147 204 191 190 196 183 131 121 220 151 211 183 213 221 255 232 259 250 254 215 205 264 212 217 240 181 186
343 338 330 324 322 319 313 311 311 313 315 318 320 326 330 328 294 245 199 181 189 190 186 170 130 151 198 212 202 226 248 233 255 219 257 255 269 250 187 255 209 224 221 171 193
342 343 341 334 328 322 312 306 302 300 298 300 305 316 327 12 253 282 234 189 188 192 196 171 165 169 191 201 205 221 240 253 262 272 258 307 258 249 255 256 247 249 232 218 213
335 339 338 337 333 327 319 312 304 297 291 287 288 299 180 245 260 266 222 200 204 201 207 179 202 203 216 219 189 231 260 266 272 230 240 207 270 136 262 265 260 237 253 236 220
327 331 332 334 333 330 323 311 304 295 290 283 276 260 205 236 244 251 229 219 213 207 219 237 225 163 157 291 276 298 310 310 216 225 230 166 290 227 251 234 274 266 259 257 237
322 326 330 332 331 331 325 315 304 292 285 281 261 178 242 253 248 242 227 220 219 218 217 265 208 201 196 312 359 337 320 322 318 138 240 159 250 270 248 229 263 274 271 264 261
324 328 331 335 334 333 328 320 306 298 289 256 156 166 262 278 233 241 220 186 180 145 151 111 133 176 308 88 9 324 247 223 306 203 173 185 245 260 245 199 261 269 272 271 274
319 326 332 336 337 336 331 323 349 89 105 120 89 49 267 240 192 191 193 173 123 114 67 109 64 177 40 112 232 227 225 247 237 286 187 225 249 272 293 217 247 264 266 269 272
313 320 328 335 339 340 338 337 357 319 196 194 198 218 270 188 176 175 159 132 105 96 176 220 145 200 223 206 235 174 219 237 252 254 264 258 263 261 271 280 275 264 263 263 263
302 310 321 332 339 348 353 55 54 308 309 252 249 271 269 94 297 179 152 137 156 195 119 79 219 222 230 196 207 232 255 265 271 265 240 268 268 273 261 257 258 269 268 267 269
281 291 307 323 334 357 39 46 338 342 253 291 219 206 250 166 213 233 161 148 159 177 201 227 229 218 209 223 231 229 235 254 260 302 244 283 275 244 256 262 259 267 260 270 270
274 279 289 312 306 345 335 351 339 149 309 271 258 268 258 185 236 281 154 136 233 230 218 244 242 216 187 213 207 264 221 257 259 334 272 6 298 168 250 264 261 262 269 254 266
271 271 270 269 292 289 338 345 35 131 303 266 220 331 352 153 111 354 340 98 218 196 170 250 190 182 201 232 167 252 207 211 205 203 329 197 273 183 153 263 265 272 258 259 261
260 260 245 249 260 242 295 3 96 43 250 305 289 334 113 5 41 43 50 36 123 249 227 253 328 173 217 221 190 128 91 78 68 115 272 190 187 290 163 218 255 272 271 267 297
282 253 227 222 240 204 245 79 346 221 336 293 315 32 343 242 253 180 157 174 199 325 273 298 223 228 165 234 144 142 81 311 316 113 236 150 176 255 279 239 232 277 315 301 296
298 269 231 224 222 190 197 56 231 193 250 329 275 23 228 177 233 175 122 230 235 170 299 247 287 186 170 191 187 191 169 177 216 261 275 105 247 269 242 269 278 274 271 299 314
299 281 226 222 210 210 135 217 229 197 188 212 263 232 228 261 168 171 213 255 231 188 214 215 271 258 201 163 154 173 184 226 259 148 292 268 271 290 253 272 332 326 311 300 316
310 257 232 238 208 184 235 236 229 192 163 203 200 188 213 194 199 181 205 209 236 193 162 308 293 210 35 308 261 190 151 98 283 215 244 225 258 268 278 283 272 312 297 309 344
282 259 234 207 170 223 226 231 251 239 195 214 237 239 218 231 219 247 222 276 264 231 171 181 179 262 61 211 249 224 251 230 267 195 257 259 245 263 277 241 267 318 315 301 277
215 237 213 164 186 221 235 218 231 254 237 246 256 245 255 270 255 229 223 209 203 184 208 204 209 242 265 238 234 191 242 233 240 247 240 259 255 256 267 270 288 290 293 298 301
231 254 204 196 230 228 244 246 243 253 248 234 239 221 228 252 268 246 253 250 240 284 248 129 264 275 278 292 324 215 241 238 245 262 258 262 265 272 295 292 283 283 277 270 286
316 269 205 226 245 248 249 248 249 230 247 242 251 246 263 264 252 250 272 295 1 306 327 333 255 257 272 282 297 286 284 282 250 257 259 257 271 277 279 283 293 336 9 30 33
216 233 306 226 238 246 253 269 271 269 224 223 260 242 263 260 262 265 268 326 298 18 11 229 261 274 281 293 290 283 286 284 272 262 251 261 276 278 278 351 3 20 34 22 13
228 231 319 300 307 277 242 245 260 267 268 270 269 277 270 258 264 258 16 225 266 31 18 282 281 284 273 284 279 287 279 269 279 291 281 287 287 32 19 10 4 20 18 12 1
247 302 326 261 304 261 258 257 265 324 269 289 353 305 277 320 1 328 287 256 255 270 258 258 262 256 272 278 296 283 264 278 277 350 326 312 38 8 6 2 345 7 359 357 344